Location: Porsmoguer
(48.4167°N, 4.7833°W)
Time: 17:44:48
(UTC+00:00)

Daily predictions for brighter satellites

Satellite Brightness Start Highest point End
(mag) Time Altitude Azimuth Time Altitude Azimuth Time Altitude Azimuth
Cosmos 1092 Rocket 4.2 20:15:34 10° S 20:21:43 59° E 20:27:56 10° NNE
Cosmos 2026 Rocket 4.2 20:19:22 10° SSE 20:25:24 51° E 20:31:24 10° NNE
SL-16 R/B 2.5 20:20:18 10° NNW 20:26:00 74° WSW 20:31:38 10° SSE
Meteor 2-15 Rocket 4.5 20:19:59 10° N 20:26:05 76° ENE 20:32:10 10° SSE
IGS 5A 3.7 20:24:34 10° SSE 20:28:36 54° ENE 20:32:40 10° N
GP-B 4.0 20:24:49 10° NNE 20:28:47 31° E 20:32:44 10° SSE
Meteor 1-26 Rocket 4.3 20:24:23 10° N 20:30:18 77° ENE 20:35:58 10° SSE
Cosmos 1151 Rocket 3.5 20:26:51 10° N 20:31:06 46° ENE 20:35:19 10° SSE
Cosmos 1371 Rocket 4.2 20:26:21 10° NNW 20:31:44 66° ENE 20:37:03 10° SSE
NOSS 3-1 (C) 4.3 20:25:03 10° NW 20:32:14 63° NE 20:40:42 10° ESE
Cosmos 1680 Rocket 3.5 20:27:03 10° S 20:32:15 63° ESE 20:37:27 10° NNE
Cosmos 2112 Rocket 4.1 20:28:56 10° S 20:34:06 57° ESE 20:39:15 10° NNE
Nadezhda 4 Rocket 4.4 20:28:26 10° SSW 20:34:37 73° W 20:40:55 10° N
Cosmos 1271 Rocket 2.9 20:31:09 10° NNW 20:35:10 82° W 20:39:10 10° S
Okean 3 Rocket 4.2 20:32:56 10° SSE 20:37:08 40° E 20:41:22 10° NNE
ERS-2 2.2 20:37:50 10° NNE 20:41:27 55° ESE 20:45:00 10° S
MetOp-B 4.4 20:37:14 10° SE 20:42:27 55° ENE 20:47:41 10° N
Cosmos 2237 4.3 20:38:27 10° NNW 20:44:13 88° WSW 20:49:56 10° SSE
COSMOS 2487 4.3 20:45:40 12° ESE 20:46:42 13° E 20:48:23 10° ENE
COSMOS 2428 3.8 20:43:49 10° NNW 20:48:58 33° NE 20:53:52 11° ESE
USA 229 DEB 4.4 20:43:20 10° NW 20:50:23 54° NE 20:57:36 11° ESE
USA 229 4.4 20:43:26 10° NW 20:50:29 53° NE 20:57:42 11° ESE
Cosmos 1428 Rocket 4.4 20:44:25 10° S 20:50:31 78° E 20:56:38 10° NNE
GEOS 3 Rocket 3.6 20:45:38 10° NE 20:50:52 80° SE 20:56:00 10° SW
SAR-Lupe-4 4.2 20:48:27 10° N 20:52:01 59° WNW 20:55:32 10° SSW
COSMOS 2455 3.5 20:47:07 10° S 20:52:22 33° ESE 20:57:41 10° NE
Cosmos 220 Rocket 4.4 20:49:11 10° NNW 20:53:32 66° WSW 20:57:53 10° S
Cosmos 292 Rocket 4.0 20:51:07 10° NNW 20:55:51 59° ENE 20:59:58 14° SE
Meteor 2-3 Rocket 4.1 20:51:39 10° SSW 20:57:20 73° WNW 21:03:08 10° N
Cosmos 1328 Rocket 3.6 20:53:03 10° N 20:57:29 66° E 21:01:43 11° SSE
Terra 3.3 20:54:30 11° ESE 20:57:54 23° ENE 21:01:36 10° N
Ariane Rocket 3.6 20:53:28 10° S 20:58:26 56° WSW 21:03:27 10° NNW
Cosmos 2360 Rocket 2.2 20:53:36 10° NNW 20:59:16 86° WSW 21:04:37 12° SSE
Cosmos 1766 Rocket 3.5 20:59:16 10° S 21:03:38 76° E 21:08:00 10° NNE
Cosmos 1174 3.1 21:01:49 10° NW 21:04:49 77° SW 21:06:57 18° SSE
NOSS 2-1 (C) 3.0 21:02:11 10° SW 21:05:27 76° NW 21:08:51 10° NE
SPOT 3 Rocket 3.6 21:00:18 10° SSE 21:05:31 87° WSW 21:10:47 10° NNW
Cosmos 2084 4.3 21:04:25 10° WSW 21:08:24 53° NW 21:12:31 10° NE
Cosmos 1624 Rocket 4.2 21:04:32 10° NNW 21:09:44 70° WSW 21:14:45 11° SSE
Resurs 01 Rocket 2.1 21:06:05 10° S 21:10:29 59° W 21:14:55 10° NNW
NOSS 3-1 (A) 4.3 21:03:50 10° NW 21:11:05 66° NE 21:18:16 15° SE
Meteor 2-6 Rocket 4.1 21:06:15 10° N 21:11:40 77° ENE 21:16:31 13° SSE
NOSS 2-1 (D) 3.3 21:10:01 10° SW 21:13:16 63° NW 21:16:41 10° NE
Cosmos 1420 Rocket 4.0 21:09:25 10° NNW 21:14:47 89° ENE 21:19:08 16° SSE
Cosmos 1812 2.7 21:12:00 10° N 21:15:53 87° W 21:19:06 14° S
Cosmos 1553 Rocket 3.9 21:10:41 10° N 21:16:48 83° E 21:22:39 11° S
Cosmos 1782 4.0 21:14:43 10° NNW 21:18:30 41° W 21:22:15 10° SSW
Gblst 52 Del rocket 4.4 21:13:35 10° WNW 21:19:28 87° SSW 21:24:54 16° ESE
Cosmos 1862 3.2 21:16:12 10° S 21:20:09 70° E 21:24:07 10° NNE
SL-27 R/B 2.8 21:19:12 10° SSW 21:22:46 68° WNW 21:26:23 10° NNE
ERS-1 Rocket 3.3 21:20:14 19° SE 21:23:39 51° ENE 21:28:31 10° N
Cosmos 2228 Rocket 4.1 21:20:45 10° N 21:24:43 31° ENE 21:26:53 21° ESE
Meteor 2-21 4.4 21:20:35 10° S 21:26:44 82° E 21:32:53 10° N
Cosmos 2285 Rocket 4.3 21:22:33 10° NNW 21:28:46 57° ENE 21:33:03 20° SE
Cosmos 1833 4.2 21:24:50 10° SSW 21:30:37 88° ESE 21:36:27 10° NNE
JB-3 4.3 21:26:32 10° NNE 21:30:39 76° ESE 21:34:13 13° S
Cosmos 2297 Rocket 4.0 21:31:26 12° E 21:31:36 12° E 21:33:47 10° ENE
BREEZE-M DEB (TANK) 2.5 21:25:09 10° W 21:32:45 89° N 21:34:36 23° ESE
SPOT 5 2.8 21:31:58 23° SE 21:34:31 60° ENE 21:39:01 10° N
ARIANE 5 R/B 2.6 21:31:52 22° SSE 21:34:41 72° ENE 21:39:05 10° N
Cosmos 2333 Rocket 2.2 21:29:03 10° NNW 21:34:45 89° ENE 21:38:33 22° SSE
Cosmos 2322 Rocket 3.8 21:31:23 10° NW 21:36:08 29° WSW 21:40:51 10° SSW
Cosmos 2237 Rocket 3.5 21:31:46 10° NNW 21:36:47 30° NE 21:40:34 15° E
Cosmos 2322 3.7 21:31:58 10° NNW 21:37:43 89° NE 21:41:30 23° SSE
Cosmos 1452 Rocket 3.5 21:36:03 10° NNW 21:41:20 79° ENE 21:44:29 25° SSE
USA 234 4.4 21:36:00 10° ENE 21:42:04 42° N 21:48:10 10° WNW
Cosmos 1500 Rocket 3.7 21:40:12 24° SSE 21:42:41 55° E 21:47:04 10° NNE
Cosmos 2227 Rocket 4.1 21:44:50 12° E 21:44:50 12° E 21:46:27 10° ENE
Cosmos 2219 Rocket 2.1 21:42:58 10° NNW 21:48:36 87° WSW 21:51:54 26° SSE
S3M 4.1 21:44:56 10° N 21:51:23 82° W 21:56:13 19° S
Sich 1 3.9 21:53:27 29° ESE 21:54:22 32° E 21:58:13 10° NNE
ATLAS 5 CENTAUR R/B 2.3 21:49:27 10° NW 21:54:57 89° NE 21:58:39 27° SE
Meteor 2-16 Rocket 4.4 21:50:06 13° S 21:55:38 87° E 22:01:47 10° N
USA 245 4.4 21:54:05 17° SSW 21:57:01 39° WSW 22:00:21 10° NNW
Cosmos 1331 Rocket 4.3 21:52:01 10° NNW 21:57:09 53° ENE 21:59:35 29° SE
Spot 2 Rocket 3.9 21:54:15 19° S 21:57:49 61° WSW 22:02:53 10° NNW
Meteor 1-27 Rocket 3.7 21:52:13 10° N 21:57:57 86° ENE 22:01:24 26° SSE
Cosmos 1408 Rocket 4.0 21:54:03 11° SSW 21:58:12 59° WNW 22:02:29 10° N
Cosmos 1110 Rocket 4.2 21:53:20 10° NNW 21:58:37 60° ENE 22:01:08 30° SE
CZ-2C R/B 4.5 21:59:13 10° N 22:03:34 50° WNW 22:07:51 10° SW
Cosmos 1743 Rocket 3.5 22:02:46 25° S 22:05:19 89° E 22:09:45 10° N
SL-16 R/B 4.0 22:04:37 10° N 22:09:01 22° NE 22:12:56 12° E
Cosmos 1655 Rocket 4.1 22:04:01 13° SSW 22:09:49 79° W 22:16:17 10° N
Cosmos 1633 Rocket 4.3 22:10:51 24° E 22:11:04 24° E 22:14:34 10° NE
Cosmos 494 Rocket 3.9 22:11:18 29° S 22:13:48 63° ESE 22:18:53 10° NNE
Lacrosse 5 2.0 22:12:21 18° SSW 22:15:53 47° SE 22:20:44 10° ENE
IRIDIUM 104 4.3 22:11:58 10° N 22:17:13 75° E 22:19:24 36° SSE
COSMOS 2487 3.4 22:18:51 18° SW 22:21:07 44° WNW 22:24:23 10° N
APEX 4.4 22:17:43 25° S 22:21:12 63° ESE 22:27:54 10° NE
Cosmos 1666 Rocket 4.2 22:21:09 35° ESE 22:21:38 36° E 22:25:45 10° NNE
Cosmos 1602 4.0 22:22:55 47° ESE 22:23:04 48° E 22:26:47 10° NNE
CZ-4B DEB 4.1 22:23:12 81° SSW 22:23:18 83° WSW 22:26:29 10° NNW
IRIDIUM 114 4.3 22:21:06 10° N 22:26:22 89° E 22:28:31 37° S
USA 102 4.2 22:32:37 49° NW 22:32:37 49° NW 22:39:47 10° NNW
COSMOS 2428 3.2 22:27:58 10° NW 22:33:28 50° WSW 22:35:52 31° SSW
CZ-4C R/B 3.9 22:27:43 10° NW 22:34:03 40° NNE 22:41:10 11° E
Terra 2.3 22:33:23 32° SSW 22:35:19 52° W 22:40:00 10° NNW
IRIDIUM 103 4.4 22:30:17 10° N 22:35:31 77° W 22:37:39 37° S
Meteor 1-25 Rocket 4.1 22:33:39 37° S 22:35:54 75° E 22:41:28 10° NNE
COBE Rocket 4.2 22:36:50 41° ESE 22:37:57 50° ENE 22:42:34 10° N
COSMOS 2455 3.5 22:32:11 10° SW 22:38:04 55° NW 22:44:00 10° NNE
Cosmos 2084 Rocket 3.5 22:34:09 10° NW 22:38:18 61° SW 22:38:56 54° SSW
CZ-3B R/B 2.3 22:28:51 10° WNW 22:38:44 89° SW 22:39:48 49° ESE
Meteor 2-4 Rocket 4.4 22:33:07 10° N 22:38:48 45° ENE 22:40:46 33° ESE
USA 229 DEB 4.4 22:34:25 10° NW 22:41:28 50° WSW 22:45:02 30° S
USA 229 4.4 22:34:31 10° NW 22:41:34 50° WSW 22:45:07 30° S
Cosmos 2360 Rocket 4.5 22:39:26 10° WNW 22:42:24 15° W 22:45:22 10° SW
Cosmos 1048 Rocket 4.4 22:40:00 16° SW 22:44:05 60° WNW 22:49:11 10° NNE
Cosmos 1862 Rocket 3.8 22:40:36 10° N 22:44:50 50° ENE 22:45:19 47° E
Meteor 1-18 Rocket 4.3 22:41:39 10° N 22:47:29 73° ENE 22:49:18 44° SSE
Cosmos 2219 3.7 22:48:18 39° SE 22:48:56 41° ESE 22:54:17 10° NE
USA 267 4.2 22:43:37 10° ENE 22:48:10 27° ESE 22:48:10 27° ESE
H-2A R/B 3.6 22:48:18 10° N 22:52:31 74° WNW 22:53:30 51° SW
Okean 1 3.1 22:48:41 10° N 22:52:43 87° WSW 22:52:58 78° S
Cosmos 1707 Rocket 3.5 22:48:41 10° NNW 22:53:04 78° W 22:53:48 60° SSW
Spot 4 4.2 22:52:09 44° ESE 22:53:12 53° ENE 22:57:55 10° N
Cosmos 1302 Rocket 3.9 22:51:00 10° NNW 22:56:15 83° ENE 22:57:32 53° SSE
TSX-5 3.9 22:57:39 64° SSW 22:58:17 88° ESE 23:03:21 10° NNE
Cosmos 1500 3.2 22:59:15 68° ENE 22:59:15 68° ENE 23:02:52 10° NNE
Meteor 1-19 Rocket 4.1 22:53:44 10° NNW 22:59:17 79° W 23:00:52 48° S
Cosmos 1980 3.7 22:54:11 10° NNW 22:59:51 76° WSW 23:01:25 49° S
SL-08 R/B 4.4 23:00:49 45° SSE 23:02:45 69° E 23:08:50 10° NNE
NOSS 2-2 (D) 4.4 23:02:21 10° NW 23:07:37 77° SW 23:09:49 45° SSE
Okean 1-7 4.1 23:05:30 10° N 23:09:21 32° ENE 23:09:33 32° ENE
Cosmos 1269 Rocket 3.9 23:10:35 57° SSE 23:11:32 72° ESE 23:16:49 10° NNE
Cosmos 2297 Rocket 2.1 23:13:12 51° S 23:14:38 75° ESE 23:20:19 10° NNE
Cosmos 2333 Rocket 4.3 23:14:58 10° WNW 23:18:12 16° W 23:20:34 12° SW
Cosmos 2237 Rocket 2.5 23:15:37 10° NW 23:21:11 57° WSW 23:22:23 47° SSW
ALOS 2 2.8 23:23:09 57° E 23:23:24 59° ENE 23:27:44 10° N
USA 234 3.8 23:18:05 10° E 23:24:29 58° NNE 23:30:53 10° NW
Cosmos 2227 Rocket 2.1 23:26:37 58° S 23:27:38 72° ESE 23:33:18 10° NNE
Cosmos 1709 Rocket 4.5 23:26:19 40° SE 23:27:44 46° E 23:33:47 10° NNE
Cosmos 2219 Rocket 4.3 23:28:45 10° WNW 23:31:41 15° W 23:33:37 12° WSW
Cosmos 2263 Rocket 4.0 23:33:28 17° E 23:33:28 17° E 23:36:41 10° ENE
Meteor 1-14 Rocket 4.2 23:34:11 52° SSW 23:35:37 80° WNW 23:41:22 10° N
Cosmos 1386 Rocket 4.5 23:34:43 50° S 23:36:33 84° E 23:42:58 10° N
Cosmos 1745 Rocket 3.9 23:35:14 51° S 23:36:58 85° E 23:43:21 10° N
ATLAS 5 CENTAUR R/B 3.9 23:34:57 10° WNW 23:39:16 21° WSW 23:40:09 21° SW
Cosmos 1536 4.1 23:40:44 32° ENE 23:40:44 32° ENE 23:43:42 10° NNE
Okean 3 4.2 23:41:47 10° N 23:45:46 43° ENE 23:45:46 43° ENE
Cosmos 1869 Rocket 4.5 23:47:06 38° E 23:47:06 38° E 23:50:55 10° NNE
Cosmos 1633 Rocket 4.1 23:47:55 34° W 23:48:40 36° WNW 23:52:43 10° N
Nadezhda 1 Rocket 4.1 23:43:12 10° NNW 23:49:34 68° W 23:51:16 48° SSW
Cosmos 1666 3.3 23:50:39 53° NW 23:50:39 53° NW 23:54:04 10° N
Cosmos 44 3.7 23:45:06 10° NW 23:50:22 64° NE 23:51:25 51° E
Cosmos 1470 Rocket 3.8 23:51:16 57° W 23:51:25 57° WNW 23:55:42 10° N
Thor Agena Rocket 4.4 23:47:59 10° NNE 23:52:34 33° E 23:52:35 33° E
SL-16 R/B 2.1 23:48:10 10° NNW 23:53:53 84° WSW 23:54:47 64° SSE
